TimeEST,TemperatureF,Dew PointF,Humidity,Sea Level PressureIn,VisibilityMPH,Wind Direction,Wind SpeedMPH,Gust SpeedMPH,PrecipitationIn,Events,Conditions,WindDirDegrees,DateUTC
12:55 AM,62.2,61.2,96,30.07,9.0,East,3.5,-,N/A,,Clear,90,2013-01-02 05:55:00
1:55 AM,62.2,60.4,94,30.06,10.0,Calm,Calm,-,N/A,,Clear,0,2013-01-02 06:55:00
2:55 AM,61.9,59.7,93,30.06,10.0,Calm,Calm,-,N/A,,Clear,0,2013-01-02 07:55:00
3:13 AM,60.8,60.8,100,30.06,9.0,Calm,Calm,-,N/A,,Clear,0,2013-01-02 08:13:00
3:17 AM,60.8,60.8,100,30.06,9.0,Calm,Calm,-,N/A,,Clear,0,2013-01-02 08:17:00
3:55 AM,61.3,60.1,96,30.06,10.0,Calm,Calm,-,N/A,,Clear,0,2013-01-02 08:55:00
4:55 AM,61.5,60.4,96,30.06,10.0,Calm,Calm,-,N/A,,Clear,0,2013-01-02 09:55:00
5:55 AM,61.9,59.2,91,30.07,10.0,Calm,Calm,-,N/A,,Clear,0,2013-01-02 10:55:00
6:55 AM,61.0,59.7,96,30.08,10.0,Calm,Calm,-,N/A,,Clear,0,2013-01-02 11:55:00
7:55 AM,61.0,60.6,99,30.09,10.0,Calm,Calm,-,N/A,,Clear,0,2013-01-02 12:55:00
8:55 AM,70.9,66.6,86,30.10,10.0,Calm,Calm,-,N/A,,Clear,0,2013-01-02 13:55:00
9:55 AM,75.9,66.2,72,30.12,10.0,SE,9.2,-,N/A,,Clear,140,2013-01-02 14:55:00
10:55 AM,78.1,66.6,68,30.11,10.0,SE,5.8,-,N/A,,Clear,140,2013-01-02 15:55:00
11:55 AM,78.4,67.6,69,30.09,10.0,ESE,9.2,-,N/A,,Clear,110,2013-01-02 16:55:00
12:55 PM,80.2,66.9,64,30.06,10.0,SE,8.1,-,N/A,,Clear,140,2013-01-02 17:55:00
1:55 PM,78.6,67.6,69,30.04,10.0,SE,8.1,-,N/A,,Clear,130,2013-01-02 18:55:00
2:55 PM,78.4,68.4,71,30.03,10.0,SE,8.1,-,N/A,,Clear,130,2013-01-02 19:55:00
3:55 PM,76.6,69.1,77,30.03,10.0,SE,5.8,-,N/A,,Partly Cloudy,130,2013-01-02 20:55:00
4:55 PM,76.3,68.0,75,30.03,10.0,South,5.8,-,N/A,,Partly Cloudy,170,2013-01-02 21:55:00
5:55 PM,73.9,68.2,82,30.04,10.0,SSE,5.8,-,N/A,,Partly Cloudy,160,2013-01-02 22:55:00
6:55 PM,70.3,67.3,90,30.06,10.0,Calm,Calm,-,N/A,,Clear,0,2013-01-02 23:55:00
7:55 PM,68.4,66.6,94,30.07,10.0,Calm,Calm,-,N/A,,Clear,0,2013-01-03 00:55:00
8:55 PM,66.9,66.0,97,30.08,10.0,SE,3.5,-,N/A,,Clear,140,2013-01-03 01:55:00
9:55 PM,66.0,65.8,99,30.09,10.0,SSE,4.6,-,N/A,,Clear,160,2013-01-03 02:55:00
10:55 PM,68.4,66.9,95,30.09,10.0,Calm,Calm,-,N/A,,Partly Cloudy,0,2013-01-03 03:55:00
11:55 PM,69.1,67.8,96,30.07,10.0,Calm,Calm,-,N/A,,Scattered Clouds,0,2013-01-03 04:55:00